TimePST,TemperatureF,Dew PointF,Humidity,Sea Level PressureIn,VisibilityMPH,Wind Direction,Wind SpeedMPH,Gust SpeedMPH,PrecipitationIn,Events,Conditions,WindDirDegrees,DateUTC
12:15 AM,53.6,50.0,88,29.94,10.0,ESE,10.4,-,N/A,,Overcast,120,2012-11-21 08:15:00
12:35 AM,53.6,50.0,88,29.95,10.0,SE,5.8,-,N/A,,Overcast,130,2012-11-21 08:35:00
12:55 AM,53.6,53.6,100,29.95,10.0,East,4.6,-,N/A,,Overcast,90,2012-11-21 08:55:00
1:15 AM,53.6,53.6,100,29.95,9.0,East,6.9,-,0.01,,Overcast,90,2012-11-21 09:15:00
1:35 AM,53.6,51.8,94,29.96,10.0,East,6.9,-,0.01,,Overcast,100,2012-11-21 09:35:00
1:55 AM,53.6,53.6,100,29.97,10.0,Calm,Calm,-,0.01,,Overcast,0,2012-11-21 09:55:00
2:15 AM,53.6,53.6,100,29.98,9.0,East,4.6,-,N/A,,Overcast,90,2012-11-21 10:15:00
2:35 AM,53.6,53.6,100,29.98,6.0,East,5.8,-,0.02,,Overcast,90,2012-11-21 10:35:00
2:55 AM,53.6,53.6,100,29.99,4.0,Calm,Calm,-,0.06,,Mostly Cloudy,0,2012-11-21 10:55:00
3:15 AM,53.6,53.6,100,29.99,5.0,Calm,Calm,-,0.02,,Overcast,0,2012-11-21 11:15:00
3:35 AM,53.6,51.8,94,29.99,10.0,Calm,Calm,-,0.02,,Overcast,0,2012-11-21 11:35:00
3:55 AM,53.6,50.0,88,29.99,8.0,West,6.9,-,0.02,,Overcast,280,2012-11-21 11:55:00
4:15 AM,53.6,51.8,94,30.00,10.0,Calm,Calm,-,N/A,,Overcast,0,2012-11-21 12:15:00
4:35 AM,53.6,50.0,88,30.01,10.0,WNW,6.9,-,N/A,,Overcast,290,2012-11-21 12:35:00
4:55 AM,51.8,51.8,100,30.03,9.0,North,4.6,-,0.01,,Overcast,350,2012-11-21 12:55:00
5:15 AM,50.0,50.0,100,30.04,9.0,Calm,Calm,-,N/A,,Overcast,0,2012-11-21 13:15:00
5:35 AM,50.0,50.0,100,30.05,10.0,Calm,Calm,-,N/A,,Overcast,0,2012-11-21 13:35:00
5:55 AM,50.0,50.0,100,30.07,10.0,Calm,Calm,-,N/A,,Overcast,0,2012-11-21 13:55:00
6:15 AM,50.0,50.0,100,30.08,10.0,Calm,Calm,-,N/A,,Mostly Cloudy,0,2012-11-21 14:15:00
6:35 AM,50.0,50.0,100,30.09,10.0,Calm,Calm,-,N/A,,Mostly Cloudy,0,2012-11-21 14:35:00
6:55 AM,50.0,50.0,100,30.10,9.0,Calm,Calm,-,0.01,,Mostly Cloudy,0,2012-11-21 14:55:00
7:15 AM,50.0,50.0,100,30.11,8.0,Calm,Calm,-,N/A,,Mostly Cloudy,0,2012-11-21 15:15:00
7:35 AM,48.2,48.2,100,30.12,0.2,South,4.6,-,0.03,,Overcast,170,2012-11-21 15:35:00
7:55 AM,48.2,48.2,100,30.13,0.2,SE,3.5,-,0.03,,Overcast,140,2012-11-21 15:55:00
8:15 AM,48.2,48.2,100,30.14,0.2,SE,4.6,-,N/A,,Overcast,130,2012-11-21 16:15:00
8:35 AM,48.2,48.2,100,30.15,0.2,Calm,Calm,-,N/A,,Overcast,0,2012-11-21 16:35:00
8:55 AM,48.2,48.2,100,30.15,0.2,SSE,4.6,-,N/A,,Mostly Cloudy,160,2012-11-21 16:55:00
9:15 AM,50.0,50.0,100,30.16,0.2,SE,3.5,-,N/A,,Mostly Cloudy,140,2012-11-21 17:15:00
9:35 AM,50.0,50.0,100,30.17,9.0,Calm,Calm,-,N/A,,Partly Cloudy,0,2012-11-21 17:35:00
9:55 AM,51.8,51.8,100,30.18,10.0,Calm,Calm,-,N/A,,Partly Cloudy,0,2012-11-21 17:55:00
10:15 AM,51.8,51.8,100,30.19,10.0,Calm,Calm,-,N/A,,Clear,0,2012-11-21 18:15:00
10:35 AM,53.6,51.8,94,30.20,10.0,Calm,Calm,-,N/A,,Clear,0,2012-11-21 18:35:00
10:55 AM,55.4,50.0,82,30.20,10.0,Calm,Calm,-,N/A,,Scattered Clouds,0,2012-11-21 18:55:00
11:15 AM,55.4,48.2,77,30.20,10.0,Calm,Calm,-,N/A,,Scattered Clouds,0,2012-11-21 19:15:00
11:35 AM,55.4,44.6,67,30.20,10.0,Calm,Calm,-,N/A,,Clear,0,2012-11-21 19:35:00
12:15 PM,55.4,46.4,72,30.20,10.0,NW,5.8,-,N/A,,Clear,320,2012-11-21 20:15:00
12:35 PM,55.4,44.6,67,30.20,10.0,NW,6.9,-,N/A,,Clear,310,2012-11-21 20:35:00
12:55 PM,57.2,46.4,67,30.20,10.0,NNW,6.9,-,N/A,,Clear,340,2012-11-21 20:55:00
1:15 PM,55.4,44.6,67,30.20,10.0,NW,5.8,-,N/A,,Partly Cloudy,310,2012-11-21 21:15:00
1:35 PM,55.4,44.6,67,30.20,10.0,NW,6.9,-,N/A,,Clear,310,2012-11-21 21:35:00
1:55 PM,55.4,42.8,63,30.20,10.0,WNW,8.1,-,N/A,,Clear,300,2012-11-21 21:55:00
2:15 PM,55.4,44.6,67,30.21,10.0,NW,8.1,-,N/A,,Clear,310,2012-11-21 22:15:00
2:35 PM,55.4,44.6,67,30.21,10.0,NW,8.1,-,N/A,,Clear,310,2012-11-21 22:35:00
2:55 PM,55.4,42.8,63,30.21,10.0,NW,8.1,-,N/A,,Clear,310,2012-11-21 22:55:00
3:15 PM,55.4,42.8,63,30.22,10.0,NW,6.9,-,N/A,,Clear,310,2012-11-21 23:15:00
3:35 PM,53.6,42.8,67,30.23,10.0,NW,6.9,-,N/A,,Clear,310,2012-11-21 23:35:00
3:55 PM,53.6,42.8,67,30.23,10.0,WNW,6.9,-,N/A,,Clear,300,2012-11-21 23:55:00
4:15 PM,51.8,42.8,71,30.23,10.0,NW,5.8,-,N/A,,Clear,310,2012-11-22 00:15:00
4:35 PM,50.0,44.6,82,30.23,10.0,WNW,3.5,-,N/A,,Clear,300,2012-11-22 00:35:00
4:55 PM,50.0,44.6,82,30.24,10.0,WNW,4.6,-,N/A,,Clear,300,2012-11-22 00:55:00
5:15 PM,50.0,44.6,82,30.24,10.0,Calm,Calm,-,N/A,,Clear,0,2012-11-22 01:15:00
5:35 PM,48.2,46.4,93,30.25,10.0,Calm,Calm,-,N/A,,Clear,0,2012-11-22 01:35:00
5:55 PM,48.2,46.4,93,30.25,10.0,WSW,4.6,-,N/A,,Clear,240,2012-11-22 01:55:00
6:15 PM,46.4,46.4,100,30.26,10.0,SW,6.9,-,N/A,,Clear,230,2012-11-22 02:15:00
6:35 PM,46.4,46.4,100,30.26,10.0,Calm,Calm,-,N/A,,Clear,0,2012-11-22 02:35:00
6:55 PM,46.4,46.4,100,30.27,10.0,Calm,Calm,-,N/A,,Clear,0,2012-11-22 02:55:00
7:15 PM,44.6,44.6,100,30.27,10.0,SSE,5.8,-,N/A,,Clear,160,2012-11-22 03:15:00
7:35 PM,44.6,44.6,100,30.28,4.0,SSE,5.8,-,N/A,,Clear,150,2012-11-22 03:35:00
7:55 PM,44.6,44.6,100,30.28,1.0,SSE,5.8,-,N/A,,Clear,150,2012-11-22 03:55:00
8:15 PM,44.6,44.6,100,30.28,0.5,SE,5.8,-,N/A,,Unknown,140,2012-11-22 04:15:00
8:35 PM,42.8,42.8,100,30.28,0.2,SSE,5.8,-,N/A,,Unknown,150,2012-11-22 04:35:00
8:55 PM,41.0,41.0,100,30.28,0.2,SE,6.9,-,N/A,,Mostly Cloudy,140,2012-11-22 04:55:00
9:15 PM,41.0,41.0,100,30.28,1.2,SSE,6.9,-,N/A,,Clear,150,2012-11-22 05:15:00
9:35 PM,41.0,41.0,100,30.29,0.2,SSE,6.9,-,N/A,,Unknown,160,2012-11-22 05:35:00
9:55 PM,41.0,41.0,100,30.29,0.2,SE,9.2,-,N/A,,Overcast,140,2012-11-22 05:55:00
10:15 PM,41.0,41.0,100,30.29,0.2,SE,8.1,-,N/A,,Overcast,140,2012-11-22 06:15:00
10:35 PM,41.0,41.0,100,30.29,0.2,SSE,6.9,-,N/A,,Overcast,150,2012-11-22 06:35:00
10:55 PM,41.0,41.0,100,30.29,0.2,SSE,6.9,-,0.01,,Overcast,150,2012-11-22 06:55:00
11:15 PM,41.0,41.0,100,30.29,0.2,SSE,6.9,-,N/A,,Overcast,160,2012-11-22 07:15:00
11:35 PM,41.0,41.0,100,30.29,0.2,SE,9.2,-,N/A,,Overcast,140,2012-11-22 07:35:00
11:55 PM,41.0,41.0,100,30.29,0.2,SE,9.2,-,N/A,,Overcast,140,2012-11-22 07:55:00